TimeMDT,TemperatureF,Dew PointF,Humidity,Sea Level PressureIn,VisibilityMPH,Wind Direction,Wind SpeedMPH,Gust SpeedMPH,PrecipitationIn,Events,Conditions,WindDirDegrees,DateUTC
12:51 AM,14.0,3.9,64,30.14,-9999.0,Variable,4.6,-,N/A,,Unknown,0,2013-03-19 06:51:00
1:51 AM,14.0,3.9,64,30.14,-9999.0,South,4.6,-,N/A,,Unknown,180,2013-03-19 07:51:00
2:51 AM,5.0,-0.9,76,30.19,-9999.0,Calm,Calm,-,N/A,,Unknown,0,2013-03-19 08:51:00
3:51 AM,5.0,-0.0,80,30.20,-9999.0,Calm,Calm,-,N/A,,Unknown,0,2013-03-19 09:51:00
4:51 AM,-0.0,-2.9,88,30.22,-9999.0,Calm,Calm,-,N/A,,Unknown,0,2013-03-19 10:51:00
5:51 AM,1.0,-4.0,79,30.22,-9999.0,Calm,Calm,-,N/A,,Unknown,0,2013-03-19 11:51:00
6:51 AM,-2.9,-7.1,82,30.30,-9999.0,Calm,Calm,-,N/A,,Unknown,0,2013-03-19 12:51:00
7:51 AM,-0.9,-6.0,79,30.32,-9999.0,South,4.6,-,N/A,,Unknown,180,2013-03-19 13:51:00
8:51 AM,-0.0,-4.0,83,30.36,-9999.0,Calm,Calm,-,N/A,,Unknown,0,2013-03-19 14:51:00
9:51 AM,7.0,-0.0,73,30.33,-9999.0,Calm,Calm,-,N/A,,Unknown,0,2013-03-19 15:51:00
10:51 AM,12.9,3.9,67,30.32,-9999.0,Calm,Calm,-,N/A,,Unknown,0,2013-03-19 16:51:00
11:51 AM,19.9,3.0,48,30.28,-9999.0,Calm,Calm,-,N/A,,Unknown,0,2013-03-19 17:51:00
12:51 PM,25.0,6.1,45,30.25,-9999.0,NNW,3.5,-,N/A,,Unknown,330,2013-03-19 18:51:00
1:51 PM,32.0,7.0,35,30.20,-9999.0,Calm,Calm,-,N/A,,Unknown,0,2013-03-19 19:51:00
2:51 PM,37.0,3.0,24,30.18,-9999.0,NNW,4.6,-,N/A,,Unknown,330,2013-03-19 20:51:00
3:51 PM,39.0,-2.9,17,30.15,-9999.0,NNW,5.8,-,N/A,,Unknown,330,2013-03-19 21:51:00
4:51 PM,39.9,-9.0,12,30.17,-9999.0,SSE,11.5,-,N/A,,Unknown,160,2013-03-19 22:51:00
5:51 PM,39.9,-2.9,16,30.15,-9999.0,South,9.2,-,N/A,,Unknown,180,2013-03-19 23:51:00
6:51 PM,37.9,1.0,21,30.17,-9999.0,South,8.1,-,N/A,,Unknown,170,2013-03-20 00:51:00
7:51 PM,34.0,7.0,32,30.17,-9999.0,South,5.8,-,N/A,,Unknown,170,2013-03-20 01:51:00
8:51 PM,32.0,8.1,37,30.17,-9999.0,South,6.9,-,N/A,,Unknown,170,2013-03-20 02:51:00
9:51 PM,33.1,12.9,43,30.12,-9999.0,SSE,9.2,18.4,N/A,,Unknown,150,2013-03-20 03:51:00
10:51 PM,34.0,12.9,42,30.06,-9999.0,South,8.1,-,N/A,,Unknown,180,2013-03-20 04:51:00
11:51 PM,34.0,12.9,42,30.01,-9999.0,SSE,9.2,-,N/A,,Unknown,160,2013-03-20 05:51:00